GLO1917 SBMO-SBSV

Flight info

Callsign GLO1917
Flight time 0h 47m
Altitude 30000
Route ARVOR DCT GERSO UZ14 AKPAS
Aircraft B738/M-SDE2E3FGHIRWXY/LB1

Departure

Time 2026-04-25 22:20
Airport Zumbi dos Palmares International Airport (SBMO)

Arrival

Time 2026-04-25 23:07
Airport Deputado Luiz Eduardo Magalhães International Airport (SBSV)
Time Latitude Longitude Altitude Speed Heading
2026-04-25 21:48 -9.51386 -35.79246 390 ft 0 kts 191°
2026-04-25 22:11 -9.51378 -35.79245 390 ft 2 kts 190°
2026-04-25 22:11 -9.51363 -35.79242 390 ft 2 kts 191°
2026-04-25 22:11 -9.51347 -35.79239 390 ft 2 kts 207°
2026-04-25 22:12 -9.51337 -35.79229 390 ft 2 kts 243°
2026-04-25 22:12 -9.51333 -35.79215 390 ft 0 kts 274°
2026-04-25 22:12 -9.51334 -35.79209 390 ft 1 kts 281°
2026-04-25 22:12 -9.51335 -35.79207 389 ft 0 kts 279°
2026-04-25 22:14 -9.51334 -35.79208 389 ft 1 kts 279°
2026-04-25 22:14 -9.51329 -35.79235 390 ft 4 kts 284°
2026-04-25 22:15 -9.51318 -35.79281 390 ft 7 kts 284°
2026-04-25 22:15 -9.51305 -35.79341 391 ft 9 kts 282°
2026-04-25 22:15 -9.51279 -35.79412 391 ft 11 kts 319°
2026-04-25 22:16 -9.51174 -35.79538 392 ft 13 kts 280°
2026-04-25 22:16 -9.51155 -35.79641 393 ft 18 kts 281°
2026-04-25 22:16 -9.51128 -35.79785 394 ft 22 kts 280°
2026-04-25 22:16 -9.51100 -35.79941 395 ft 22 kts 280°
2026-04-25 22:17 -9.51070 -35.80098 395 ft 23 kts 282°
2026-04-25 22:17 -9.51040 -35.80257 397 ft 17 kts 279°
2026-04-25 22:17 -9.51015 -35.80330 397 ft 9 kts 327°
2026-04-25 22:17 -9.50990 -35.80338 397 ft 0 kts 360°
2026-04-25 22:18 -9.50983 -35.80338 397 ft 2 kts
2026-04-25 22:18 -9.50954 -35.80334 397 ft 5 kts
2026-04-25 22:18 -9.50909 -35.80328 397 ft 7 kts
2026-04-25 22:19 -9.50867 -35.80310 397 ft 7 kts 73°
2026-04-25 22:19 -9.50882 -35.80214 397 ft 27 kts 102°
2026-04-25 22:19 -9.50967 -35.79779 394 ft 96 kts 101°
2026-04-25 22:19 -9.51132 -35.78901 388 ft 153 kts 102°
2026-04-25 22:20 -9.51333 -35.77767 766 ft 168 kts 101°
2026-04-25 22:20 -9.51524 -35.76645 1588 ft 161 kts 101°
2026-04-25 22:20 -9.51867 -35.75583 2200 ft 166 kts 119°
2026-04-25 22:20 -9.52613 -35.74654 2721 ft 177 kts 142°
2026-04-25 22:21 -9.53757 -35.74200 3403 ft 181 kts 174°
2026-04-25 22:21 -9.54983 -35.74485 4052 ft 190 kts 207°
2026-04-25 22:21 -9.55884 -35.75486 4422 ft 207 kts 240°
2026-04-25 22:21 -9.56513 -35.76923 4680 ft 231 kts 234°
2026-04-25 22:22 -9.57724 -35.77999 5117 ft 239 kts 198°
2026-04-25 22:22 -9.59389 -35.78418 5641 ft 253 kts 189°
2026-04-25 22:22 -9.61105 -35.78898 6259 ft 267 kts 199°
2026-04-25 22:22 -9.62800 -35.79778 6911 ft 279 kts 210°
2026-04-25 22:23 -9.64416 -35.80896 7700 ft 284 kts 214°
2026-04-25 22:23 -9.66024 -35.82084 8518 ft 288 kts 214°
2026-04-25 22:23 -9.67657 -35.83282 9272 ft 292 kts 213°
2026-04-25 22:23 -9.69320 -35.84475 10059 ft 295 kts 213°
2026-04-25 22:24 -9.71018 -35.85676 10583 ft 308 kts 213°
2026-04-25 22:24 -9.72837 -35.86958 11052 ft 323 kts 213°
2026-04-25 22:24 -9.74730 -35.88291 11491 ft 338 kts 213°
2026-04-25 22:24 -9.76714 -35.89688 11917 ft 353 kts 213°
2026-04-25 22:25 -9.78733 -35.91113 12554 ft 359 kts 214°
2026-04-25 22:25 -9.80806 -35.92580 13332 ft 362 kts 213°
2026-04-25 22:25 -9.82862 -35.94036 14016 ft 366 kts 214°
2026-04-25 22:25 -9.84975 -35.95533 14692 ft 371 kts 214°
2026-04-25 22:26 -9.87118 -35.97051 15373 ft 376 kts 214°
2026-04-25 22:26 -9.89255 -35.98563 16019 ft 380 kts 214°
2026-04-25 22:26 -9.91447 -36.00116 16657 ft 385 kts 214°
2026-04-25 22:26 -9.93657 -36.01682 17238 ft 391 kts 214°
2026-04-25 22:27 -9.95916 -36.03283 17891 ft 394 kts 214°
2026-04-25 22:27 -9.98193 -36.04896 18463 ft 399 kts 214°
2026-04-25 22:27 -10.00484 -36.06518 19056 ft 403 kts 214°
2026-04-25 22:27 -10.02787 -36.08147 19591 ft 408 kts 213°
2026-04-25 22:28 -10.05132 -36.09805 20176 ft 411 kts 213°
2026-04-25 22:28 -10.07495 -36.11475 20673 ft 416 kts 213°
2026-04-25 22:28 -10.09909 -36.13184 21189 ft 420 kts 213°
2026-04-25 22:28 -10.12309 -36.14885 21699 ft 423 kts 213°
2026-04-25 22:29 -10.14753 -36.16616 22162 ft 428 kts 213°
2026-04-25 22:29 -10.17188 -36.18340 22707 ft 430 kts 213°
2026-04-25 22:29 -10.19667 -36.20096 23222 ft 433 kts 213°
2026-04-25 22:30 -10.24629 -36.23615 24268 ft 438 kts 213°
2026-04-25 22:30 -10.27152 -36.25404 24770 ft 441 kts 213°
2026-04-25 22:30 -10.29674 -36.27192 25293 ft 443 kts 213°
2026-04-25 22:30 -10.31366 -36.28392 25626 ft 444 kts 213°
2026-04-25 22:31 -10.34759 -36.30801 26237 ft 448 kts 213°
2026-04-25 22:31 -10.37328 -36.32626 26764 ft 449 kts 213°
2026-04-25 22:31 -10.39859 -36.34431 27476 ft 445 kts 213°
2026-04-25 22:31 -10.42403 -36.36245 28205 ft 440 kts 213°
2026-04-25 22:32 -10.44897 -36.38021 28873 ft 437 kts 213°
2026-04-25 22:32 -10.47395 -36.39799 29512 ft 434 kts 213°
2026-04-25 22:32 -10.49850 -36.41548 29864 ft 437 kts 213°
2026-04-25 22:32 -10.52380 -36.43349 29902 ft 442 kts 213°
2026-04-25 22:33 -10.57394 -36.46916 29905 ft 437 kts 213°
2026-04-25 22:33 -10.62370 -36.50454 29907 ft 435 kts 213°
2026-04-25 22:34 -10.67367 -36.54008 29907 ft 436 kts 213°
2026-04-25 22:34 -10.72335 -36.57553 29904 ft 437 kts 213°
2026-04-25 22:35 -10.77344 -36.61121 29905 ft 437 kts 213°
2026-04-25 22:35 -10.82332 -36.64671 29905 ft 437 kts 213°
2026-04-25 22:36 -10.87311 -36.68224 29908 ft 437 kts 214°
2026-04-25 22:36 -10.92299 -36.71808 29905 ft 437 kts 213°
2026-04-25 22:37 -10.97279 -36.75393 29907 ft 438 kts 213°
2026-04-25 22:37 -11.02260 -36.78978 29907 ft 437 kts 214°
2026-04-25 22:38 -11.07289 -36.82600 29908 ft 439 kts 213°
2026-04-25 22:38 -11.12131 -36.86087 29908 ft 437 kts 213°
2026-04-25 22:39 -11.17113 -36.89675 29909 ft 438 kts 213°
2026-04-25 22:39 -11.22098 -36.93265 29908 ft 437 kts 213°
2026-04-25 22:40 -11.27070 -36.96848 29908 ft 438 kts 213°
2026-04-25 22:40 -11.32074 -37.00450 29907 ft 437 kts 213°
2026-04-25 22:41 -11.37047 -37.04034 29905 ft 437 kts 213°
2026-04-25 22:41 -11.42007 -37.07617 29905 ft 437 kts 213°
2026-04-25 22:42 -11.46973 -37.11205 29905 ft 437 kts 213°
2026-04-25 22:42 -11.51971 -37.14817 29905 ft 437 kts 213°
2026-04-25 22:43 -11.56931 -37.18401 29905 ft 436 kts 213°
2026-04-25 22:43 -11.61907 -37.21999 29905 ft 437 kts 213°
2026-04-25 22:44 -11.66883 -37.25596 29903 ft 436 kts 213°
2026-04-25 22:44 -11.71837 -37.29176 29904 ft 437 kts 213°
2026-04-25 22:45 -11.76810 -37.32772 29904 ft 437 kts 213°
2026-04-25 22:45 -11.81767 -37.36363 29904 ft 437 kts 213°
2026-04-25 22:46 -11.86762 -37.39979 29904 ft 436 kts 212°
2026-04-25 22:46 -11.91717 -37.43568 29905 ft 436 kts 213°
2026-04-25 22:47 -11.96560 -37.47339 29903 ft 437 kts 217°
2026-04-25 22:47 -12.01125 -37.51297 29807 ft 422 kts 218°
2026-04-25 22:48 -12.03329 -37.53237 29490 ft 415 kts 218°
2026-04-25 22:48 -12.05507 -37.55146 29036 ft 411 kts 217°
2026-04-25 22:48 -12.07694 -37.57054 28527 ft 409 kts 217°
2026-04-25 22:48 -12.09845 -37.58919 27997 ft 407 kts 217°
2026-04-25 22:49 -12.12012 -37.60790 27438 ft 406 kts 217°
2026-04-25 22:49 -12.14191 -37.62665 26882 ft 405 kts 217°
2026-04-25 22:49 -12.16338 -37.64507 26344 ft 404 kts 217°
2026-04-25 22:49 -12.18496 -37.66352 25806 ft 403 kts 218°
2026-04-25 22:50 -12.20655 -37.68199 25258 ft 401 kts 218°
2026-04-25 22:50 -12.22810 -37.70044 24718 ft 400 kts 218°
2026-04-25 22:50 -12.24944 -37.71872 24173 ft 399 kts 218°
2026-04-25 22:50 -12.27055 -37.73681 23632 ft 398 kts 219°
2026-04-25 22:51 -12.29188 -37.75510 23094 ft 396 kts 219°
2026-04-25 22:51 -12.31305 -37.77323 22558 ft 395 kts 219°
2026-04-25 22:51 -12.33385 -37.79104 22041 ft 394 kts 219°
2026-04-25 22:51 -12.35484 -37.80903 21528 ft 394 kts 219°
2026-04-25 22:52 -12.37608 -37.82724 20987 ft 394 kts 219°
2026-04-25 22:52 -12.39694 -37.84513 20452 ft 393 kts 219°
2026-04-25 22:52 -12.41801 -37.86317 19896 ft 392 kts 219°
2026-04-25 22:52 -12.43188 -37.87506 19528 ft 387 kts 219°
2026-04-25 22:53 -12.45884 -37.89821 18842 ft 374 kts 219°
2026-04-25 22:53 -12.47872 -37.91530 18318 ft 366 kts 219°
2026-04-25 22:53 -12.49808 -37.93195 17807 ft 357 kts 219°
2026-04-25 22:53 -12.51680 -37.94804 17323 ft 349 kts 219°
2026-04-25 22:54 -12.53538 -37.96382 16826 ft 341 kts 219°
2026-04-25 22:54 -12.55369 -37.97906 16366 ft 339 kts 218°
2026-04-25 22:54 -12.57202 -37.99416 15876 ft 338 kts 218°
2026-04-25 22:54 -12.59036 -38.00928 15406 ft 338 kts 218°
2026-04-25 22:55 -12.60868 -38.02441 14927 ft 337 kts 218°
2026-04-25 22:55 -12.62702 -38.03961 14456 ft 336 kts 218°
2026-04-25 22:55 -12.64523 -38.05471 13980 ft 335 kts 218°
2026-04-25 22:55 -12.66319 -38.06961 13494 ft 332 kts 218°
2026-04-25 22:56 -12.68104 -38.08444 13059 ft 322 kts 218°
2026-04-25 22:56 -12.69840 -38.09886 12625 ft 333 kts 218°
2026-04-25 22:56 -12.71698 -38.11427 12122 ft 349 kts 218°
2026-04-25 22:56 -12.73586 -38.12996 11616 ft 343 kts 217°
2026-04-25 22:57 -12.75401 -38.14527 11136 ft 332 kts 220°
2026-04-25 22:57 -12.76973 -38.16222 10668 ft 325 kts 232°
2026-04-25 22:57 -12.77949 -38.18272 10260 ft 318 kts 252°
2026-04-25 22:57 -12.78415 -38.20434 10049 ft 303 kts 259°
2026-04-25 22:58 -12.78741 -38.22493 9856 ft 288 kts 259°
2026-04-25 22:58 -12.79067 -38.24509 9482 ft 288 kts 258°
2026-04-25 22:58 -12.79431 -38.26536 9113 ft 288 kts 257°
2026-04-25 22:58 -12.79823 -38.28549 8748 ft 288 kts 257°
2026-04-25 22:59 -12.80233 -38.30564 8381 ft 287 kts 256°
2026-04-25 22:59 -12.80640 -38.32546 8025 ft 287 kts 256°
2026-04-25 22:59 -12.81049 -38.34547 7666 ft 286 kts 256°
2026-04-25 22:59 -12.81455 -38.36536 7308 ft 286 kts 256°
2026-04-25 23:00 -12.81861 -38.38526 6973 ft 284 kts 257°
2026-04-25 23:00 -12.82256 -38.40483 6730 ft 279 kts 257°
2026-04-25 23:00 -12.82645 -38.42425 6392 ft 278 kts 257°
2026-04-25 23:00 -12.83032 -38.44369 5949 ft 279 kts 257°
2026-04-25 23:01 -12.83417 -38.46297 5531 ft 275 kts 257°
2026-04-25 23:01 -12.83813 -38.48201 5121 ft 267 kts 253°
2026-04-25 23:01 -12.84455 -38.49954 4625 ft 259 kts 236°
2026-04-25 23:01 -12.85700 -38.51179 4346 ft 238 kts 203°
2026-04-25 23:02 -12.87232 -38.51592 4108 ft 220 kts 181°
2026-04-25 23:02 -12.88738 -38.51558 3663 ft 217 kts 169°
2026-04-25 23:02 -12.90204 -38.51278 3228 ft 214 kts 165°
2026-04-25 23:02 -12.91638 -38.50932 2939 ft 204 kts 161°
2026-04-25 23:03 -12.92882 -38.50370 2698 ft 187 kts 141°
2026-04-25 23:03 -12.93684 -38.49352 2113 ft 186 kts 112°
2026-04-25 23:03 -12.93944 -38.48094 1727 ft 174 kts 95°
2026-04-25 23:03 -12.93869 -38.46908 1627 ft 160 kts 81°
2026-04-25 23:04 -12.93605 -38.45850 1609 ft 150 kts 80°
2026-04-25 23:04 -12.93458 -38.45163 1609 ft 141 kts 81°
2026-04-25 23:04 -12.93202 -38.43883 1664 ft 136 kts 81°
2026-04-25 23:04 -12.93002 -38.42897 1661 ft 143 kts 81°
2026-04-25 23:05 -12.92807 -38.41919 1611 ft 139 kts 82°
2026-04-25 23:05 -12.92613 -38.40939 1460 ft 138 kts 81°
2026-04-25 23:05 -12.92419 -38.39990 1267 ft 136 kts 82°
2026-04-25 23:05 -12.92225 -38.39032 1120 ft 135 kts 81°
2026-04-25 23:06 -12.92024 -38.38086 905 ft 141 kts 79°
2026-04-25 23:06 -12.91809 -38.37117 798 ft 137 kts 82°
2026-04-25 23:06 -12.91616 -38.36128 587 ft 141 kts 81°
2026-04-25 23:06 -12.91419 -38.35158 416 ft 138 kts 82°
2026-04-25 23:07 -12.91239 -38.34190 228 ft 137 kts 79°
2026-04-25 23:07 -12.91045 -38.33240 43 ft 136 kts 82°
2026-04-25 23:07 -12.90900 -38.32460 43 ft 75 kts 79°
2026-04-25 23:07 -12.90823 -38.32073 49 ft 48 kts 79°
2026-04-25 23:08 -12.90768 -38.31768 55 ft 25 kts 89°
2026-04-25 23:08 -12.90811 -38.31731 55 ft 4 kts 150°
2026-04-25 23:08 -12.90862 -38.31711 55 ft 9 kts 171°
2026-04-25 23:08 -12.90916 -38.31744 54 ft 10 kts 245°
2026-04-25 23:09 -12.90930 -38.31822 53 ft 12 kts 259°
2026-04-25 23:09 -12.90950 -38.31923 51 ft 15 kts 257°
2026-04-25 23:09 -12.90976 -38.32042 49 ft 18 kts 257°
2026-04-25 23:09 -12.91004 -38.32178 47 ft 20 kts 258°
2026-04-25 23:10 -12.91035 -38.32329 45 ft 22 kts 258°
2026-04-25 23:10 -12.91066 -38.32484 43 ft 17 kts 259°
2026-04-25 23:10 -12.91090 -38.32616 42 ft 19 kts 259°
2026-04-25 23:10 -12.91118 -38.32755 41 ft 20 kts 258°
2026-04-25 23:11 -12.91126 -38.32794 41 ft 1 kts 257°
2026-04-25 23:11 -12.91131 -38.32816 41 ft 4 kts 258°
2026-04-25 23:11 -12.91138 -38.32848 41 ft 5 kts 258°
2026-04-25 23:11 -12.91146 -38.32888 41 ft 6 kts 258°
2026-04-25 23:12 -12.91155 -38.32933 41 ft 6 kts 258°
2026-04-25 23:12 -12.91165 -38.32984 41 ft 7 kts 258°
2026-04-25 23:12 -12.91180 -38.33056 42 ft 13 kts 258°
2026-04-25 23:12 -12.91197 -38.33149 42 ft 12 kts 255°
2026-04-25 23:13 -12.91252 -38.33186 42 ft 7 kts 223°
2026-04-25 23:13 -12.91275 -38.33230 42 ft 7 kts 256°
2026-04-25 23:13 -12.91288 -38.33268 42 ft 4 kts 220°
2026-04-25 23:13 -12.91324 -38.33273 43 ft 4 kts 175°
2026-04-25 23:14 -12.91335 -38.33272 43 ft 1 kts 173°
2026-04-25 23:14 -12.91338 -38.33271 43 ft 0 kts 173°